Regional Weather Roundup
Issued by NWS Green Bay, WI

Home | Current Version | Previous Version | Graphics & Text | Print | Product List | Glossary Off
Versions: 1 2 3 4 5 6 7 8 9 10 11 12 13 14 15 16 17 18 19 20 21 22 23 24 25 26 27 28 29 30 31 32 33 34 35 36 37 38 39 40 41 42 43 44 45 46 47 48 49 50

000
ASUS43 KGRB 210859
RWRGRB

NORTH-CENTRAL AND NORTHEAST WISCONSIN REGIONAL WEATHER ROUNDUP
NATIONAL WEATHER SERVICE GREEN BAY WI
300 AM CST SUN DEC 21 2014

WIZ005-009-010>012-018-019-211000-
NORTH CENTRAL WISCONSIN

CITY           SKY/WX    TMP DP  RH WIND       PRES   REMARKS
IRONWOOD       CLOUDY    30  27  86 S7        30.03F
MANITOWISH WTR NOT AVBL
ARBOR VITAE    NOT AVBL
EAGLE RIVER    NOT AVBL
LAND O LAKES   NOT AVBL
RHINELANDER    CLOUDY    26  24  92 S6        30.09F FOG
PHILLIPS       NOT AVBL
ANTIGO         NOT AVBL
TOMAHAWK       NOT AVBL
MERRILL        NOT AVBL
$$

WIZ013-073-211000-
NORTHEAST WISCONSIN

CITY           SKY/WX    TMP DP  RH WIND       PRES   REMARKS
IRON MOUNTAIN  CLOUDY    26  23  88 SE6       30.13F FOG
MARINETTE      CLOUDY    28  25  86 S3        30.19F
$$

WIZ017-030-035>037-045-211000-
CENTRAL WISCONSIN

CITY           SKY/WX    TMP DP  RH WIND       PRES   REMARKS
MEDFORD        NOT AVBL
WAUSAU         CLOUDY    28  26  92 S6        30.11F FOG
MOSINEE        NOT AVBL
MARSHFIELD     CLOUDY    29  26  89 S6        30.11F FOG
WISC RAPIDS    CLOUDY    29  25  85 S3        30.15F FOG
STEVENS POINT  NOT AVBL
WAUPACA        NOT AVBL
SHAWANO        NOT AVBL
CLINTONVILLE   NOT AVBL
$$

WIZ038-039-048-051-211000-
FOX VALLEY

CITY           SKY/WX    TMP DP  RH WIND       PRES   REMARKS
NWS GREEN BAY  CLOUDY    30  27  88 S6        30.20S FOG
APPLETON       NOT AVBL
OSHKOSH        CLOUDY    30  26  85 S8        30.18F FOG
FOND DU LAC    CLOUDY    31  26  82 S6        30.19F
$$

WIZ022-050-052-211000-
EAST CENTRAL WISCONSIN

CITY           SKY/WX    TMP DP  RH WIND       PRES   REMARKS
STURGEON BAY   CLOUDY    28  25  86 S5        30.21F
MANITOWOC      NOT AVBL
SHEBOYGAN      CLOUDY    30  26  85 S3        30.21S
$$

LMZ563-521-522-541>543-211000-
LAKESHORE

STATION/POSITION TIME  TEMP    WIND        PRES    VSBY  WAVE
                       AIR SEA DIR/SP/G                  HT/PER
                 (UTC) (F)     (DEG/KT/KT) (MB)    (MI)  (FT/S)
SHEBOYGAN LKSHOR 0800   31 34  200/  6/  7 1024.2R
KEWAUNEE LKSHORE 0800   31     200/  2/  4 1022.1R
ALGOMA MARINA    0800          220/  6/  7   N/A
NORTHPORT PIER   0800   30      CALM  /  3 1022.7S
CHAMBERS ISLAND  0800   29      CALM  /  2 1023.0S
MENOMINEE LKSHOR 0800   30     190/  2/  4 1023.2S
$$


USA.gov is the U.S. government's official web portal to all federal, state and local government web resources and services.